Location: Wapato
(46.4478°N, 120.4212°W)
Time: 15:25:10
(UTC+00:00)

Explorer 7 - Pass Details

Date: 14 May 2026
Orbit: 426 x 534 km, 50.2° (Epoch: 8 June)

Event Time Altitude Azimuth Distance (km) Brightness Sun altitude
Rises 18:00:45 0° 292° (WNW) 2,558 9.9 53.3°
Reaches altitude 10° 18:02:54 10° 293° (WNW) 1,695 9.1 53.6°
Maximum altitude 18:06:45 86° 19° (NNE) 514 7.7 54.1°
Drops below altitude 10° 18:10:45 10° 112° (ESE) 1,749 10.1 54.6°
Sets 18:12:59 0° 113° (ESE) 2,649 10.8 54.9°
